Tracking 19636 objects as of 24-May-2019
HD Live streaming from Space Station
objects crossing your sky now

APEX

Track APEX now!
10-day predictions
APEX is classified as:


NORAD ID: 23191
Int'l Code: 1994-046A
Perigee: 338.2 km
Apogee: 1,143.5 km
Inclination: 69.9 °
Period: 99.5 minutes
Semi major axis: 7111 km
RCS: 2.5502 m2 (large)
Launch date: August 3, 1994
Source: United States (US)
Launch site: AIR FORCE WESTERN TEST RANGE (AFWTR)
aabbcc
Your satellite tracking list
Your tracking list is empty




NASA's NSSDC Master Catalog

Two Line Element Set (TLE):
1 23191U 94046A   19143.19267150  .00003195  00000-0  10228-3 0  9992
2 23191  69.9182  13.9586 0566134 338.3293  19.4705 14.47538074218269
Source of the keplerian elements: AFSPC